Year,Month,Day,Hour,Minute,Value (Times are PST for temperature in C)
2011,05,20,00,00,10.40
2011,05,20,00,01,10.40
2011,05,20,00,02,10.40
2011,05,20,00,03,10.40
2011,05,20,00,04,10.40
2011,05,20,00,05,10.40
2011,05,20,00,06,10.40
2011,05,20,00,07,10.40
2011,05,20,00,08,10.40
2011,05,20,00,09,10.40
2011,05,20,00,10,10.40
2011,05,20,00,11,10.40
2011,05,20,00,12,10.40
2011,05,20,00,13,10.40
2011,05,20,00,14,10.40
2011,05,20,00,15,10.40
2011,05,20,00,16,10.40
2011,05,20,00,17,10.40
2011,05,20,00,18,10.40
2011,05,20,00,19,10.40
2011,05,20,00,20,10.40
2011,05,20,00,21,10.40
2011,05,20,00,22,10.40
2011,05,20,00,23,10.40
2011,05,20,00,24,10.40
2011,05,20,00,25,10.40
2011,05,20,00,26,10.40
2011,05,20,00,27,10.40
2011,05,20,00,28,10.40
2011,05,20,00,29,10.30
2011,05,20,00,30,10.30
2011,05,20,00,31,10.30
2011,05,20,00,32,10.30
2011,05,20,00,33,10.30
2011,05,20,00,34,10.30
2011,05,20,00,35,10.30
2011,05,20,00,36,10.30
2011,05,20,00,37,10.30
2011,05,20,00,38,10.20
2011,05,20,00,39,10.20
2011,05,20,00,40,10.20
2011,05,20,00,41,10.20
2011,05,20,00,42,10.20
2011,05,20,00,43,10.20
2011,05,20,00,44,10.20
2011,05,20,00,45,10.20
2011,05,20,00,46,10.20
2011,05,20,00,47,10.20
2011,05,20,00,48,10.20
2011,05,20,00,49,10.20
2011,05,20,00,50,10.20
2011,05,20,00,51,10.20
2011,05,20,00,52,10.10
2011,05,20,00,53,10.10
2011,05,20,00,54,10.10
2011,05,20,00,55,10.10
2011,05,20,00,56,10.10
2011,05,20,00,57,10.10
2011,05,20,00,58,10.10
2011,05,20,00,59,10.10
2011,05,20,01,00,10.10
2011,05,20,01,01,10.10
2011,05,20,01,02,10.10
2011,05,20,01,03,10.10
2011,05,20,01,04,10.10
2011,05,20,01,05,10.10
2011,05,20,01,06,10.00
2011,05,20,01,07,10.00
2011,05,20,01,08,9.90
2011,05,20,01,09,9.90
2011,05,20,01,10,9.90
2011,05,20,01,11,9.90
2011,05,20,01,12,9.90
2011,05,20,01,13,9.90
2011,05,20,01,14,9.90
2011,05,20,01,15,9.90
2011,05,20,01,16,9.90
2011,05,20,01,17,9.90
2011,05,20,01,18,9.90
2011,05,20,01,19,9.90
2011,05,20,01,20,9.90
2011,05,20,01,21,9.90
2011,05,20,01,22,9.90
2011,05,20,01,23,9.90
2011,05,20,01,24,9.90
2011,05,20,01,25,9.90
2011,05,20,01,26,9.90
2011,05,20,01,27,9.90
2011,05,20,01,28,9.90
2011,05,20,01,29,9.90
2011,05,20,01,30,9.90
2011,05,20,01,31,9.90
2011,05,20,01,32,9.90
2011,05,20,01,33,9.90
2011,05,20,01,34,9.90
2011,05,20,01,35,9.90
2011,05,20,01,36,9.90
2011,05,20,01,37,9.80
2011,05,20,01,38,9.80
2011,05,20,01,39,9.80
2011,05,20,01,40,9.80
2011,05,20,01,41,9.80
2011,05,20,01,42,9.80
2011,05,20,01,43,9.80
2011,05,20,01,44,9.80
2011,05,20,01,45,9.80
2011,05,20,01,46,9.70
2011,05,20,01,47,9.70
2011,05,20,01,48,9.70
2011,05,20,01,49,9.70
2011,05,20,01,50,9.70
2011,05,20,01,51,9.70
2011,05,20,01,52,9.70
2011,05,20,01,53,9.70
2011,05,20,01,54,9.70
2011,05,20,01,55,9.70
2011,05,20,01,56,9.70
2011,05,20,01,57,9.70
2011,05,20,01,58,9.70
2011,05,20,01,59,9.70
2011,05,20,02,00,9.70
2011,05,20,02,01,9.60
2011,05,20,02,02,9.70
2011,05,20,02,03,9.60
2011,05,20,02,04,9.60
2011,05,20,02,05,9.60
2011,05,20,02,06,9.60
2011,05,20,02,07,9.60
2011,05,20,02,08,9.70
2011,05,20,02,09,9.70
2011,05,20,02,10,9.70
2011,05,20,02,11,9.70
2011,05,20,02,12,9.70
2011,05,20,02,13,9.70
2011,05,20,02,14,9.70
2011,05,20,02,15,9.70
2011,05,20,02,16,9.60
2011,05,20,02,17,9.60
2011,05,20,02,18,9.60
2011,05,20,02,19,9.60
2011,05,20,02,20,9.60
2011,05,20,02,21,9.50
2011,05,20,02,22,9.50
2011,05,20,02,23,9.50
2011,05,20,02,24,9.50
2011,05,20,02,25,9.50
2011,05,20,02,26,9.50
2011,05,20,02,27,9.40
2011,05,20,02,28,9.40
2011,05,20,02,29,9.40
2011,05,20,02,30,9.40
2011,05,20,02,31,9.40
2011,05,20,02,32,9.30
2011,05,20,02,33,9.30
2011,05,20,02,34,9.30
2011,05,20,02,35,9.30
2011,05,20,02,36,9.30
2011,05,20,02,37,9.30
2011,05,20,02,38,9.30
2011,05,20,02,39,9.30
2011,05,20,02,40,9.20
2011,05,20,02,41,9.20
2011,05,20,02,42,9.20
2011,05,20,02,43,9.20
2011,05,20,02,44,9.20
2011,05,20,02,45,9.20
2011,05,20,02,46,9.20
2011,05,20,02,47,9.20
2011,05,20,02,48,9.20
2011,05,20,02,49,9.20
2011,05,20,02,50,9.20
2011,05,20,02,51,9.20
2011,05,20,02,52,9.20
2011,05,20,02,53,9.20
2011,05,20,02,54,9.20
2011,05,20,02,55,9.20
2011,05,20,02,56,9.10
2011,05,20,02,57,9.10
2011,05,20,02,58,9.10
2011,05,20,02,59,9.10
2011,05,20,03,00,9.10
2011,05,20,03,01,9.00
2011,05,20,03,02,9.00
2011,05,20,03,03,9.00
2011,05,20,03,04,9.00
2011,05,20,03,05,9.00
2011,05,20,03,06,9.00
2011,05,20,03,07,8.90
2011,05,20,03,08,8.90
2011,05,20,03,09,8.90
2011,05,20,03,10,8.90
2011,05,20,03,11,8.90
2011,05,20,03,12,8.90
2011,05,20,03,13,8.80
2011,05,20,03,14,8.80
2011,05,20,03,15,8.80
2011,05,20,03,16,8.80
2011,05,20,03,17,8.80
2011,05,20,03,18,8.70
2011,05,20,03,19,8.70
2011,05,20,03,20,8.70
2011,05,20,03,21,8.70
2011,05,20,03,22,8.70
2011,05,20,03,23,8.70
2011,05,20,03,24,8.70
2011,05,20,03,25,8.70
2011,05,20,03,26,8.70
2011,05,20,03,27,8.60
2011,05,20,03,28,8.60
2011,05,20,03,29,8.60
2011,05,20,03,30,8.60
2011,05,20,03,31,8.60
2011,05,20,03,32,8.50
2011,05,20,03,33,8.50
2011,05,20,03,34,8.50
2011,05,20,03,35,8.50
2011,05,20,03,36,8.40
2011,05,20,03,37,8.40
2011,05,20,03,38,8.40
2011,05,20,03,39,8.40
2011,05,20,03,40,8.40
2011,05,20,03,41,8.40
2011,05,20,03,42,8.30
2011,05,20,03,43,8.30
2011,05,20,03,44,8.30
2011,05,20,03,45,8.30
2011,05,20,03,46,8.30
2011,05,20,03,47,8.30
2011,05,20,03,48,8.30
2011,05,20,03,49,8.30
2011,05,20,03,50,8.30
2011,05,20,03,51,8.30
2011,05,20,03,52,8.30
2011,05,20,03,53,8.30
2011,05,20,03,54,8.30
2011,05,20,03,55,8.30
2011,05,20,03,56,8.20
2011,05,20,03,57,8.20
2011,05,20,03,58,8.20
2011,05,20,03,59,8.20
2011,05,20,04,00,8.20
2011,05,20,04,01,8.20
2011,05,20,04,02,8.30
2011,05,20,04,03,8.30
2011,05,20,04,04,8.30
2011,05,20,04,05,8.30
2011,05,20,04,06,8.30
2011,05,20,04,07,8.30
2011,05,20,04,08,8.20
2011,05,20,04,09,8.20
2011,05,20,04,10,8.20
2011,05,20,04,11,8.20
2011,05,20,04,12,8.20
2011,05,20,04,13,8.10
2011,05,20,04,14,8.10
2011,05,20,04,15,8.00
2011,05,20,04,16,8.00
2011,05,20,04,17,7.90
2011,05,20,04,18,7.90
2011,05,20,04,19,7.80
2011,05,20,04,20,7.80
2011,05,20,04,21,7.80
2011,05,20,04,22,7.80
2011,05,20,04,23,7.70
2011,05,20,04,24,7.70
2011,05,20,04,25,7.70
2011,05,20,04,26,7.70
2011,05,20,04,27,7.60
2011,05,20,04,28,7.60
2011,05,20,04,29,7.60
2011,05,20,04,30,7.60
2011,05,20,04,31,7.70
2011,05,20,04,32,7.70
2011,05,20,04,33,7.70
2011,05,20,04,34,7.70
2011,05,20,04,35,7.70
2011,05,20,04,36,7.70
2011,05,20,04,37,7.70
2011,05,20,04,38,7.80
2011,05,20,04,39,7.80
2011,05,20,04,40,7.80
2011,05,20,04,41,7.80
2011,05,20,04,42,7.80
2011,05,20,04,43,7.80
2011,05,20,04,44,7.70
2011,05,20,04,45,7.70
2011,05,20,04,46,7.70
2011,05,20,04,47,7.70
2011,05,20,04,48,7.70
2011,05,20,04,49,7.70
2011,05,20,04,50,7.60
2011,05,20,04,51,7.60
2011,05,20,04,52,7.60
2011,05,20,04,53,7.60
2011,05,20,04,54,7.60
2011,05,20,04,55,7.60
2011,05,20,04,56,7.50
2011,05,20,04,57,7.50
2011,05,20,04,58,7.50
2011,05,20,04,59,7.50
2011,05,20,05,00,7.50
2011,05,20,05,01,7.50
2011,05,20,05,02,7.50
2011,05,20,05,03,7.50
2011,05,20,05,04,7.50
2011,05,20,05,05,7.50
2011,05,20,05,06,7.50
2011,05,20,05,07,7.50
2011,05,20,05,08,7.50
2011,05,20,05,09,7.50
2011,05,20,05,10,7.60
2011,05,20,05,11,7.60
2011,05,20,05,12,7.60
2011,05,20,05,13,7.60
2011,05,20,05,14,7.70
2011,05,20,05,15,7.70
2011,05,20,05,16,7.70
2011,05,20,05,17,7.70
2011,05,20,05,18,7.70
2011,05,20,05,19,7.70
2011,05,20,05,20,7.70
2011,05,20,05,21,7.70
2011,05,20,05,22,7.70
2011,05,20,05,23,7.60
2011,05,20,05,24,7.60
2011,05,20,05,25,7.60
2011,05,20,05,26,7.60
2011,05,20,05,27,7.60
2011,05,20,05,28,7.60
2011,05,20,05,29,7.50
2011,05,20,05,30,7.50
2011,05,20,05,31,7.40
2011,05,20,05,32,7.30
2011,05,20,05,33,7.30
2011,05,20,05,34,7.20
2011,05,20,05,35,7.10
2011,05,20,05,36,7.10
2011,05,20,05,37,7.00
2011,05,20,05,38,7.00
2011,05,20,05,39,7.00
2011,05,20,05,40,6.90
2011,05,20,05,41,7.00
2011,05,20,05,42,7.00
2011,05,20,05,43,7.00
2011,05,20,05,44,7.00
2011,05,20,05,45,7.00
2011,05,20,05,46,7.00
2011,05,20,05,47,7.00
2011,05,20,05,48,7.00
2011,05,20,05,49,7.10
2011,05,20,05,50,7.10
2011,05,20,05,51,7.20
2011,05,20,05,52,7.20
2011,05,20,05,53,7.30
2011,05,20,05,54,7.30
2011,05,20,05,55,7.40
2011,05,20,05,56,7.40
2011,05,20,05,57,7.50
2011,05,20,05,58,7.50
2011,05,20,05,59,7.50
2011,05,20,06,00,7.60
2011,05,20,06,01,7.60
2011,05,20,06,02,7.60
2011,05,20,06,03,7.60
2011,05,20,06,04,7.60
2011,05,20,06,05,7.70
2011,05,20,06,06,7.70
2011,05,20,06,07,7.70
2011,05,20,06,08,7.70
2011,05,20,06,09,7.70
2011,05,20,06,10,7.70
2011,05,20,06,11,7.70
2011,05,20,06,12,7.70
2011,05,20,06,13,7.70
2011,05,20,06,14,7.70
2011,05,20,06,15,7.70
2011,05,20,06,16,7.80
2011,05,20,06,17,7.80
2011,05,20,06,18,7.80
2011,05,20,06,19,7.80
2011,05,20,06,20,7.80
2011,05,20,06,21,7.80
2011,05,20,06,22,7.80
2011,05,20,06,23,7.80
2011,05,20,06,24,7.70
2011,05,20,06,25,7.70
2011,05,20,06,26,7.70
2011,05,20,06,27,7.60
2011,05,20,06,28,7.60
2011,05,20,06,29,7.60
2011,05,20,06,30,7.60
2011,05,20,06,31,7.60
2011,05,20,06,32,7.60
2011,05,20,06,33,7.60
2011,05,20,06,34,7.60
2011,05,20,06,35,7.60
2011,05,20,06,36,7.60
2011,05,20,06,37,7.60
2011,05,20,06,38,7.60
2011,05,20,06,39,7.60
2011,05,20,06,40,7.60
2011,05,20,06,41,7.70
2011,05,20,06,42,7.70
2011,05,20,06,43,7.70
2011,05,20,06,44,7.80
2011,05,20,06,45,7.80
2011,05,20,06,46,7.80
2011,05,20,06,47,7.90
2011,05,20,06,48,7.90
2011,05,20,06,49,8.00
2011,05,20,06,50,8.00
2011,05,20,06,51,8.10
2011,05,20,06,52,8.20
2011,05,20,06,53,8.20
2011,05,20,06,54,8.30
2011,05,20,06,55,8.40
2011,05,20,06,56,8.50
2011,05,20,06,57,8.60
2011,05,20,06,58,8.70
2011,05,20,06,59,8.80
2011,05,20,07,00,8.80
2011,05,20,07,01,8.90
2011,05,20,07,02,9.00
2011,05,20,07,03,9.10
2011,05,20,07,04,9.20
2011,05,20,07,05,9.30
2011,05,20,07,06,9.40
2011,05,20,07,07,9.50
2011,05,20,07,08,9.50
2011,05,20,07,09,9.60
2011,05,20,07,10,9.70
2011,05,20,07,11,9.80
2011,05,20,07,12,9.90
2011,05,20,07,13,10.00
2011,05,20,07,14,10.10
2011,05,20,07,15,10.30
2011,05,20,07,16,10.40
2011,05,20,07,17,10.40
2011,05,20,07,18,10.60
2011,05,20,07,19,10.60
2011,05,20,07,20,10.70
2011,05,20,07,21,10.70
2011,05,20,07,22,10.80
2011,05,20,07,23,10.80
2011,05,20,07,24,10.90
2011,05,20,07,25,10.90
2011,05,20,07,26,10.90
2011,05,20,07,27,10.90
2011,05,20,07,28,10.90
2011,05,20,07,29,10.90
2011,05,20,07,30,10.90
2011,05,20,07,31,10.90
2011,05,20,07,32,10.90
2011,05,20,07,33,10.90
2011,05,20,07,34,10.90
2011,05,20,07,35,10.90
2011,05,20,07,36,10.90
2011,05,20,07,37,10.90
2011,05,20,07,38,10.90
2011,05,20,07,39,10.90
2011,05,20,07,40,10.90
2011,05,20,07,41,10.90
2011,05,20,07,42,10.90
2011,05,20,07,43,10.90
2011,05,20,07,44,10.90
2011,05,20,07,45,11.00
2011,05,20,07,46,11.10
2011,05,20,07,47,11.10
2011,05,20,07,48,11.20
2011,05,20,07,49,11.30
2011,05,20,07,50,11.30
2011,05,20,07,51,11.50
2011,05,20,07,52,11.60
2011,05,20,07,53,11.80
2011,05,20,07,54,11.90
2011,05,20,07,55,12.00
2011,05,20,07,56,12.10
2011,05,20,07,57,12.20
2011,05,20,07,58,12.10
2011,05,20,07,59,11.90
2011,05,20,08,00,11.80
2011,05,20,08,01,11.70
2011,05,20,08,02,11.50
2011,05,20,08,03,11.30
2011,05,20,08,04,11.20
2011,05,20,08,05,11.10
2011,05,20,08,06,11.10
2011,05,20,08,07,11.10
2011,05,20,08,08,11.00
2011,05,20,08,09,10.90
2011,05,20,08,10,10.90
2011,05,20,08,11,10.90
2011,05,20,08,12,10.90
2011,05,20,08,13,10.90
2011,05,20,08,14,10.90
2011,05,20,08,15,10.90
2011,05,20,08,16,10.90
2011,05,20,08,17,11.00
2011,05,20,08,18,11.10
2011,05,20,08,19,11.30
2011,05,20,08,20,11.40
2011,05,20,08,21,11.60
2011,05,20,08,22,11.70
2011,05,20,08,23,11.80
2011,05,20,08,24,11.80
2011,05,20,08,25,11.90
2011,05,20,08,26,12.00
2011,05,20,08,27,12.10
2011,05,20,08,28,12.30
2011,05,20,08,29,12.40
2011,05,20,08,30,12.40
2011,05,20,08,31,12.40
2011,05,20,08,32,12.50
2011,05,20,08,33,12.50
2011,05,20,08,34,12.40
2011,05,20,08,35,12.30
2011,05,20,08,36,12.10
2011,05,20,08,37,11.80
2011,05,20,08,38,11.50
2011,05,20,08,39,11.30
2011,05,20,08,40,11.20
2011,05,20,08,41,11.10
2011,05,20,08,42,11.10
2011,05,20,08,43,11.10
2011,05,20,08,44,11.00
2011,05,20,08,45,11.00
2011,05,20,08,46,11.10
2011,05,20,08,47,11.10
2011,05,20,08,48,11.20
2011,05,20,08,49,11.20
2011,05,20,08,50,11.20
2011,05,20,08,51,11.10
2011,05,20,08,52,11.00
2011,05,20,08,53,10.90
2011,05,20,08,54,10.80
2011,05,20,08,55,10.70
2011,05,20,08,56,10.60
2011,05,20,08,57,10.50
2011,05,20,08,58,10.40
2011,05,20,08,59,10.30
2011,05,20,09,00,10.30
2011,05,20,09,01,10.20
2011,05,20,09,02,10.20
2011,05,20,09,03,10.10
2011,05,20,09,04,10.10
2011,05,20,09,05,10.10
2011,05,20,09,06,10.20
2011,05,20,09,07,10.30
2011,05,20,09,08,10.30
2011,05,20,09,09,10.40
2011,05,20,09,10,10.40
2011,05,20,09,11,10.40
2011,05,20,09,12,10.40
2011,05,20,09,13,10.40
2011,05,20,09,14,10.40
2011,05,20,09,15,10.40
2011,05,20,09,16,10.50
2011,05,20,09,17,10.60
2011,05,20,09,18,10.70
2011,05,20,09,19,10.80
2011,05,20,09,20,10.80
2011,05,20,09,21,10.90
2011,05,20,09,22,10.80
2011,05,20,09,23,10.80
2011,05,20,09,24,10.80
2011,05,20,09,25,10.70
2011,05,20,09,26,10.70
2011,05,20,09,27,10.70
2011,05,20,09,28,10.70
2011,05,20,09,29,10.80
2011,05,20,09,30,10.90
2011,05,20,09,31,10.90
2011,05,20,09,32,10.90
2011,05,20,09,33,11.00
2011,05,20,09,34,11.10
2011,05,20,09,35,11.10
2011,05,20,09,36,11.20
2011,05,20,09,37,11.30
2011,05,20,09,38,11.40
2011,05,20,09,39,11.40
2011,05,20,09,40,11.40
2011,05,20,09,41,11.50
2011,05,20,09,42,11.60
2011,05,20,09,43,11.60
2011,05,20,09,44,11.60
2011,05,20,09,45,11.50
2011,05,20,09,46,11.40
2011,05,20,09,47,11.40
2011,05,20,09,48,11.40
2011,05,20,09,49,11.30
2011,05,20,09,50,11.30
2011,05,20,09,51,11.40
2011,05,20,09,52,11.40
2011,05,20,09,53,11.40
2011,05,20,09,54,11.40
2011,05,20,09,55,11.50
2011,05,20,09,56,11.60
2011,05,20,09,57,11.70
2011,05,20,09,58,11.80
2011,05,20,09,59,11.80
2011,05,20,10,00,11.80
2011,05,20,10,01,11.70
2011,05,20,10,02,11.60
2011,05,20,10,03,11.60
2011,05,20,10,04,11.40
2011,05,20,10,05,11.40
2011,05,20,10,06,11.50
2011,05,20,10,07,11.60
2011,05,20,10,08,11.60
2011,05,20,10,09,11.80
2011,05,20,10,10,11.80
2011,05,20,10,11,11.80
2011,05,20,10,12,11.90
2011,05,20,10,13,12.00
2011,05,20,10,14,12.10
2011,05,20,10,15,12.20
2011,05,20,10,16,12.30
2011,05,20,10,17,12.40
2011,05,20,10,18,12.50
2011,05,20,10,19,12.70
2011,05,20,10,20,12.80
2011,05,20,10,21,12.90
2011,05,20,10,22,12.90
2011,05,20,10,23,12.90
2011,05,20,10,24,12.90
2011,05,20,10,25,12.70
2011,05,20,10,26,12.50
2011,05,20,10,27,12.40
2011,05,20,10,28,12.30
2011,05,20,10,29,12.30
2011,05,20,10,30,12.20
2011,05,20,10,31,12.20
2011,05,20,10,32,12.30
2011,05,20,10,33,12.40
2011,05,20,10,34,12.50
2011,05,20,10,35,12.50
2011,05,20,10,36,12.50
2011,05,20,10,37,12.40
2011,05,20,10,38,12.40
2011,05,20,10,39,12.30
2011,05,20,10,40,12.30
2011,05,20,10,41,12.20
2011,05,20,10,42,12.10
2011,05,20,10,43,12.20
2011,05,20,10,44,12.10
2011,05,20,10,45,12.00
2011,05,20,10,46,12.00
2011,05,20,10,47,12.00
2011,05,20,10,48,12.10
2011,05,20,10,49,12.10
2011,05,20,10,50,12.10
2011,05,20,10,51,12.10
2011,05,20,10,52,12.10
2011,05,20,10,53,12.10
2011,05,20,10,54,12.20
2011,05,20,10,55,12.10
2011,05,20,10,56,12.10
2011,05,20,10,57,12.10
2011,05,20,10,58,12.10
2011,05,20,10,59,12.10
2011,05,20,11,00,12.00
2011,05,20,11,01,12.00
2011,05,20,11,02,12.00
2011,05,20,11,03,12.10
2011,05,20,11,04,12.30
2011,05,20,11,05,12.50
2011,05,20,11,06,12.60
2011,05,20,11,07,12.60
2011,05,20,11,08,12.60
2011,05,20,11,09,12.50
2011,05,20,11,10,12.40
2011,05,20,11,11,12.30
2011,05,20,11,12,12.10
2011,05,20,11,13,12.10
2011,05,20,11,14,12.10
2011,05,20,11,15,12.20
2011,05,20,11,16,12.20
2011,05,20,11,17,12.10
2011,05,20,11,18,12.10
2011,05,20,11,19,12.10
2011,05,20,11,20,12.10
2011,05,20,11,21,12.00
2011,05,20,11,22,12.00
2011,05,20,11,23,12.00
2011,05,20,11,24,11.90
2011,05,20,11,25,12.00
2011,05,20,11,26,12.10
2011,05,20,11,27,12.10
2011,05,20,11,28,12.00
2011,05,20,11,29,12.00
2011,05,20,11,30,12.00
2011,05,20,11,31,12.10
2011,05,20,11,32,12.20
2011,05,20,11,33,12.30
2011,05,20,11,34,12.20
2011,05,20,11,35,12.30
2011,05,20,11,36,12.20
2011,05,20,11,37,12.30
2011,05,20,11,38,12.30
2011,05,20,11,39,12.30
2011,05,20,11,40,12.30
2011,05,20,11,41,12.30
2011,05,20,11,42,12.20
2011,05,20,11,43,12.20
2011,05,20,11,44,12.20
2011,05,20,11,45,12.30
2011,05,20,11,46,12.40
2011,05,20,11,47,12.40
2011,05,20,11,48,12.30
2011,05,20,11,49,12.30
2011,05,20,11,50,12.30
2011,05,20,11,51,12.30
2011,05,20,11,52,12.30
2011,05,20,11,53,12.40
2011,05,20,11,54,12.40
2011,05,20,11,55,12.30
2011,05,20,11,56,12.40
2011,05,20,11,57,12.40
2011,05,20,11,58,12.30
2011,05,20,11,59,12.30
2011,05,20,12,00,12.30
2011,05,20,12,01,12.40
2011,05,20,12,02,12.60
2011,05,20,12,03,12.70
2011,05,20,12,04,12.80
2011,05,20,12,05,12.80
2011,05,20,12,06,12.80
2011,05,20,12,07,12.90
2011,05,20,12,08,12.90
2011,05,20,12,09,12.80
2011,05,20,12,10,12.80
2011,05,20,12,11,12.80
2011,05,20,12,12,12.80
2011,05,20,12,13,12.80
2011,05,20,12,14,12.90
2011,05,20,12,15,12.90
2011,05,20,12,16,13.00
2011,05,20,12,17,13.10
2011,05,20,12,18,13.20
2011,05,20,12,19,13.40
2011,05,20,12,20,13.50
2011,05,20,12,21,13.60
2011,05,20,12,22,13.70
2011,05,20,12,23,13.70
2011,05,20,12,24,13.80
2011,05,20,12,25,13.90
2011,05,20,12,26,13.90
2011,05,20,12,27,14.00
2011,05,20,12,28,14.20
2011,05,20,12,29,14.40
2011,05,20,12,30,14.60
2011,05,20,12,31,14.80
2011,05,20,12,32,14.80
2011,05,20,12,33,14.90
2011,05,20,12,34,15.00
2011,05,20,12,35,15.20
2011,05,20,12,36,15.30
2011,05,20,12,37,15.50
2011,05,20,12,38,15.50
2011,05,20,12,39,15.40
2011,05,20,12,40,15.20
2011,05,20,12,41,15.20
2011,05,20,12,42,15.20
2011,05,20,12,43,15.30
2011,05,20,12,44,15.30
2011,05,20,12,45,15.30
2011,05,20,12,46,15.40
2011,05,20,12,47,15.40
2011,05,20,12,48,15.50
2011,05,20,12,49,15.50
2011,05,20,12,50,15.20
2011,05,20,12,51,15.20
2011,05,20,12,52,15.20
2011,05,20,12,53,15.10
2011,05,20,12,54,15.10
2011,05,20,12,55,15.10
2011,05,20,12,56,15.10
2011,05,20,12,57,15.20
2011,05,20,12,58,15.30
2011,05,20,12,59,15.30
2011,05,20,13,00,15.10
2011,05,20,13,01,15.00
2011,05,20,13,02,14.80
2011,05,20,13,03,14.70
2011,05,20,13,04,14.50
2011,05,20,13,05,14.40
2011,05,20,13,06,14.50
2011,05,20,13,07,14.40
2011,05,20,13,08,14.40
2011,05,20,13,09,14.10
2011,05,20,13,10,14.00
2011,05,20,13,11,13.90
2011,05,20,13,12,13.80
2011,05,20,13,13,13.70
2011,05,20,13,14,13.60
2011,05,20,13,15,13.50
2011,05,20,13,16,13.50
2011,05,20,13,17,13.50
2011,05,20,13,18,13.50
2011,05,20,13,19,13.50
2011,05,20,13,20,13.40
2011,05,20,13,21,13.30
2011,05,20,13,22,13.30
2011,05,20,13,23,13.30
2011,05,20,13,24,13.30
2011,05,20,13,25,13.30
2011,05,20,13,26,13.40
2011,05,20,13,27,13.30
2011,05,20,13,28,13.10
2011,05,20,13,29,12.90
2011,05,20,13,30,12.80
2011,05,20,13,31,12.80
2011,05,20,13,32,12.70
2011,05,20,13,33,12.70
2011,05,20,13,34,12.80
2011,05,20,13,35,12.90
2011,05,20,13,36,13.00
2011,05,20,13,37,13.10
2011,05,20,13,38,13.10
2011,05,20,13,39,13.00
2011,05,20,13,40,13.10
2011,05,20,13,41,13.10
2011,05,20,13,42,13.10
2011,05,20,13,43,13.10
2011,05,20,13,44,13.00
2011,05,20,13,45,13.00
2011,05,20,13,46,13.00
2011,05,20,13,47,13.00
2011,05,20,13,48,13.00
2011,05,20,13,49,13.00
2011,05,20,13,50,12.80
2011,05,20,13,51,12.70
2011,05,20,13,52,12.50
2011,05,20,13,53,12.40
2011,05,20,13,54,12.30
2011,05,20,13,55,12.40
2011,05,20,13,56,12.50
2011,05,20,13,57,12.70
2011,05,20,13,58,12.90
2011,05,20,13,59,13.00
2011,05,20,14,00,13.20
2011,05,20,14,01,13.40
2011,05,20,14,02,13.50
2011,05,20,14,03,13.50
2011,05,20,14,04,13.60
2011,05,20,14,05,13.50
2011,05,20,14,06,13.60
2011,05,20,14,07,13.60
2011,05,20,14,08,13.60
2011,05,20,14,09,13.60
2011,05,20,14,10,13.50
2011,05,20,14,11,13.40
2011,05,20,14,12,13.30
2011,05,20,14,13,13.20
2011,05,20,14,14,13.20
2011,05,20,14,15,13.10
2011,05,20,14,16,13.10
2011,05,20,14,17,13.10
2011,05,20,14,18,13.20
2011,05,20,14,19,13.30
2011,05,20,14,20,13.30
2011,05,20,14,21,13.30
2011,05,20,14,22,13.30
2011,05,20,14,23,13.10
2011,05,20,14,24,13.00
2011,05,20,14,25,12.90
2011,05,20,14,26,12.90
2011,05,20,14,27,12.90
2011,05,20,14,28,12.90
2011,05,20,14,29,13.00
2011,05,20,14,30,13.10
2011,05,20,14,31,13.10
2011,05,20,14,32,13.00
2011,05,20,14,33,13.00
2011,05,20,14,34,12.90
2011,05,20,14,35,12.80
2011,05,20,14,36,12.90
2011,05,20,14,37,13.00
2011,05,20,14,38,13.10
2011,05,20,14,39,13.20
2011,05,20,14,40,13.10
2011,05,20,14,41,13.00
2011,05,20,14,42,12.90
2011,05,20,14,43,13.00
2011,05,20,14,44,13.20
2011,05,20,14,45,13.50
2011,05,20,14,46,13.60
2011,05,20,14,47,13.80
2011,05,20,14,48,13.90
2011,05,20,14,49,14.00
2011,05,20,14,50,14.10
2011,05,20,14,51,14.10
2011,05,20,14,52,14.10
2011,05,20,14,53,14.20
2011,05,20,14,54,14.20
2011,05,20,14,55,14.30
2011,05,20,14,56,14.40
2011,05,20,14,57,14.40
2011,05,20,14,58,14.30
2011,05,20,14,59,14.30
2011,05,20,15,00,14.20
2011,05,20,15,01,14.20
2011,05,20,15,02,14.20
2011,05,20,15,03,14.30
2011,05,20,15,04,14.50
2011,05,20,15,05,14.50
2011,05,20,15,06,14.60
2011,05,20,15,07,14.70
2011,05,20,15,08,14.80
2011,05,20,15,09,15.00
2011,05,20,15,10,15.20
2011,05,20,15,11,15.40
2011,05,20,15,12,15.60
2011,05,20,15,13,15.70
2011,05,20,15,14,15.80
2011,05,20,15,15,16.00
2011,05,20,15,16,16.20
2011,05,20,15,17,16.30
2011,05,20,15,18,16.40
2011,05,20,15,19,16.60
2011,05,20,15,20,16.70
2011,05,20,15,21,16.70
2011,05,20,15,22,16.80
2011,05,20,15,23,16.90
2011,05,20,15,24,16.90
2011,05,20,15,25,16.90
2011,05,20,15,26,17.00
2011,05,20,15,27,17.00
2011,05,20,15,28,17.10
2011,05,20,15,29,17.20
2011,05,20,15,30,17.20
2011,05,20,15,31,17.30
2011,05,20,15,32,17.30
2011,05,20,15,33,17.30
2011,05,20,15,34,17.30
2011,05,20,15,35,17.30
2011,05,20,15,36,17.30
2011,05,20,15,37,17.30
2011,05,20,15,38,17.30
2011,05,20,15,39,17.20
2011,05,20,15,40,17.10
2011,05,20,15,41,17.10
2011,05,20,15,42,17.10
2011,05,20,15,43,17.00
2011,05,20,15,44,17.00
2011,05,20,15,45,17.00
2011,05,20,15,46,17.00
2011,05,20,15,47,17.10
2011,05,20,15,48,17.00
2011,05,20,15,49,17.00
2011,05,20,15,50,17.00
2011,05,20,15,51,17.20
2011,05,20,15,52,17.30
2011,05,20,15,53,17.40
2011,05,20,15,54,17.40
2011,05,20,15,55,17.40
2011,05,20,15,56,17.40
2011,05,20,15,57,17.40
2011,05,20,15,58,17.30
2011,05,20,15,59,17.30
2011,05,20,16,00,17.30
2011,05,20,16,01,17.30
2011,05,20,16,02,17.30
2011,05,20,16,03,17.30
2011,05,20,16,04,17.30
2011,05,20,16,05,17.30
2011,05,20,16,06,17.30
2011,05,20,16,07,17.30
2011,05,20,16,08,17.40
2011,05,20,16,09,17.40
2011,05,20,16,10,17.40
2011,05,20,16,11,17.40
2011,05,20,16,12,17.30
2011,05,20,16,13,17.30
2011,05,20,16,14,17.40
2011,05,20,16,15,17.50
2011,05,20,16,16,17.50
2011,05,20,16,17,17.50
2011,05,20,16,18,17.60
2011,05,20,16,19,17.70
2011,05,20,16,20,17.70
2011,05,20,16,21,17.70
2011,05,20,16,22,17.80
2011,05,20,16,23,17.70
2011,05,20,16,24,17.80
2011,05,20,16,25,17.80
2011,05,20,16,26,17.80
2011,05,20,16,27,17.80
2011,05,20,16,28,17.80
2011,05,20,16,29,17.80
2011,05,20,16,30,17.80
2011,05,20,16,31,17.80
2011,05,20,16,32,17.70
2011,05,20,16,33,17.70
2011,05,20,16,34,17.70
2011,05,20,16,35,17.70
2011,05,20,16,36,17.70
2011,05,20,16,37,17.60
2011,05,20,16,38,17.60
2011,05,20,16,39,17.60
2011,05,20,16,40,17.60
2011,05,20,16,41,17.50
2011,05,20,16,42,17.50
2011,05,20,16,43,17.50
2011,05,20,16,44,17.40
2011,05,20,16,45,17.30
2011,05,20,16,46,17.30
2011,05,20,16,47,17.30
2011,05,20,16,48,17.30
2011,05,20,16,49,17.30
2011,05,20,16,50,17.30
2011,05,20,16,51,17.30
2011,05,20,16,52,17.30
2011,05,20,16,53,17.20
2011,05,20,16,54,17.20
2011,05,20,16,55,17.30
2011,05,20,16,56,17.30
2011,05,20,16,57,17.40
2011,05,20,16,58,17.40
2011,05,20,16,59,17.50
2011,05,20,17,00,17.50
2011,05,20,17,01,17.40
2011,05,20,17,02,17.40
2011,05,20,17,03,17.40
2011,05,20,17,04,17.40
2011,05,20,17,05,17.40
2011,05,20,17,06,17.40
2011,05,20,17,07,17.30
2011,05,20,17,08,17.30
2011,05,20,17,09,17.30
2011,05,20,17,10,17.30
2011,05,20,17,11,17.30
2011,05,20,17,12,17.30
2011,05,20,17,13,17.30
2011,05,20,17,14,17.30
2011,05,20,17,15,17.30
2011,05,20,17,16,17.20
2011,05,20,17,17,17.10
2011,05,20,17,18,17.10
2011,05,20,17,19,17.10
2011,05,20,17,20,17.00
2011,05,20,17,21,17.00
2011,05,20,17,22,17.00
2011,05,20,17,23,17.10
2011,05,20,17,24,17.10
2011,05,20,17,25,17.20
2011,05,20,17,26,17.30
2011,05,20,17,27,17.30
2011,05,20,17,28,17.40
2011,05,20,17,29,17.40
2011,05,20,17,30,17.50
2011,05,20,17,31,17.60
2011,05,20,17,32,17.60
2011,05,20,17,33,17.60
2011,05,20,17,34,17.60
2011,05,20,17,35,17.50